Theta_e
291 291 291 292 292 291 293 295 296 297 298 298 299 299 299 298 298 298 298 297 295 295 295 296 297 298 300 300 301 301 299 302 302 303 303 303 301 305 307 307 308 309 309 308 306 310 310 311 314 315 312 310 310 309
291 291 291 291 291 294 295 296 298 298 298 299 299 299 299 299 299 299 298 297 297 295 296 296 296 297 297 298 298 300 301 301 302 304 302 302 301 300 306 308 310 311 309 308 307 307 310 309 308 308 308 308 307 306
291 291 291 292 294 296 297 298 299 299 298 298 298 299 299 300 299 299 299 298 296 295 295 294 295 297 297 297 298 299 300 301 302 301 303 305 305 305 305 307 309 306 307 310 310 310 307 308 306 306 305 305 304 304
291 290 290 293 296 297 298 298 299 299 298 298 298 298 298 299 300 299 299 299 298 296 296 297 297 297 296 296 299 300 300 301 302 302 301 302 303 306 309 309 307 307 308 306 311 308 305 304 304 304 303 302 302 303
290 290 292 295 296 297 298 298 298 298 298 298 298 298 298 299 300 300 300 299 299 297 296 297 298 297 298 298 296 298 300 301 303 301 301 303 303 306 306 306 304 301 302 306 304 300 303 300 300 300 301 300 298 298
289 292 294 295 296 296 296 298 298 298 298 298 298 299 298 298 299 301 297 298 298 297 299 299 300 301 300 299 299 297 300 303 303 300 301 301 304 304 305 305 298 297 297 297 298 300 299 298 298 298 298 296 295 295
291 294 295 296 296 297 297 298 298 299 298 299 299 299 298 299 300 300 298 298 298 297 298 298 298 301 301 299 299 297 300 301 302 301 302 303 304 303 301 299 296 296 295 295 296 299 296 296 294 296 295 294 293 293
294 295 296 297 297 298 298 298 298 299 299 299 299 299 298 299 300 299 299 299 298 297 298 296 295 299 301 301 301 300 301 302 302 302 302 304 304 299 294 294 292 292 293 292 292 293 292 293 293 293 292 292 291 290
296 297 297 298 299 298 298 299 299 299 299 299 299 299 299 299 299 299 299 298 297 298 298 297 293 297 301 302 302 301 302 302 301 302 301 303 296 294 293 291 289 289 289 290 290 290 290 290 290 289 289 288 287 286
297 298 299 299 299 299 299 299 299 299 299 299 299 299 299 299 299 299 298 297 298 300 300 299 300 300 301 301 302 301 301 302 303 302 300 295 292 290 288 288 287 287 287 287 288 287 287 288 287 285 284 283 284 284
298 298 299 298 299 298 299 299 299 299 299 299 299 299 299 299 299 299 298 298 298 299 299 301 301 302 300 302 301 300 301 302 304 303 303 296 293 289 287 286 285 285 285 285 284 284 284 285 284 283 281 280 280 280
298 298 299 299 299 299 299 299 298 299 299 299 299 299 299 299 300 299 298 298 297 298 300 299 301 301 300 301 301 302 301 302 303 301 295 290 289 287 285 284 283 283 283 282 282 282 281 282 282 281 279 279 279 279
298 298 298 298 298 298 299 299 299 299 299 299 299 298 298 296 299 292 299 300 301 299 301 301 300 300 300 301 300 300 301 298 300 293 290 288 287 285 284 283 282 281 281 281 280 279 279 279 279 278 278 278 278 278
298 298 297 295 294 298 298 299 299 299 299 296 294 287 289 285 289 289 296 296 296 299 300 300 299 300 301 298 299 300 296 298 299 286 286 286 285 284 283 282 281 280 280 280 279 279 279 278 278 278 278 278 278 278
298 298 297 296 296 299 296 299 299 296 294 293 293 288 287 291 294 294 295 295 297 300 300 299 298 299 295 294 297 296 298 286 287 284 284 284 283 283 282 281 280 279 279 279 278 278 278 278 278 277 277 277 277 277
297 297 298 297 298 297 296 296 296 294 291 291 290 292 292 289 289 292 293 294 297 300 300 299 293 292 292 294 291 289 291 286 282 279 283 283 282 282 281 281 280 280 279 279 279 279 278 278 278 278 277 277 277 277
298 298 298 298 298 299 299 296 292 291 290 289 288 290 290 290 289 290 291 294 296 297 289 291 290 291 292 287 285 284 281 281 283 283 283 282 282 281 281 280 280 279 279 279 279 279 279 278 278 278 278 277 277 276
297 298 298 298 299 295 293 291 290 289 289 289 288 288 289 289 289 289 289 293 294 293 293 290 290 286 282 285 282 282 283 283 283 282 282 281 281 281 280 280 280 279 279 279 279 278 278 278 278 277 277 276 276 275
298 298 299 298 297 294 292 291 289 288 289 288 288 288 288 288 288 289 289 290 291 291 290 288 285 285 283 284 283 283 283 282 281 281 281 281 280 280 280 280 280 279 279 279 279 278 278 278 278 277 277 276 275 275
295 295 295 295 294 293 292 291 290 290 289 289 288 288 288 288 287 287 288 288 288 285 284 283 282 284 285 284 284 284 283 282 281 280 280 280 280 280 280 280 280 279 279 279 278 278 278 278 277 277 276 276 275 274
293 294 294 294 293 293 292 291 290 290 289 288 289 288 287 287 286 285 284 285 284 284 281 282 282 284 285 285 284 283 282 282 282 282 281 280 280 280 280 280 280 279 279 278 278 277 276 276 275 275 274 274 273 273
294 294 293 293 292 292 291 291 290 290 290 289 289 290 289 287 286 285 283 283 283 283 282 282 283 284 284 284 284 284 284 284 283 281 281 281 280 279 279 279 278 278 278 277 276 276 275 274 274 273 272 272 271 271
294 294 293 292 291 291 291 292 292 291 287 289 291 289 286 287 286 284 282 282 282 282 283 282 283 283 282 281 282 281 281 282 281 280 280 280 279 278 278 277 277 277 276 276 275 274 273 272 272 272 272 271 271 270
293 293 293 292 291 289 292 292 291 290 290 289 288 287 285 287 286 284 281 282 281 282 282 281 281 281 281 281 280 280 280 280 279 278 278 278 277 277 276 275 275 275 275 274 274 273 272 271 271 271 271 271 270 270
293 290 291 285 292 286 282 282 286 287 284 285 284 283 283 288 281 279 278 281 281 281 281 281 281 281 280 279 279 279 279 279 278 278 277 277 277 276 276 275 275 275 273 273 273 273 272 271 271 271 270 270 270 270
283 287 288 284 286 286 285 284 283 284 283 282 282 288 288 279 277 279 281 281 281 281 281 281 281 281 280 280 279 279 279 278 278 277 277 276 276 276 276 275 275 274 274 273 272 272 272 271 270 270 270 270 270 269
281 281 288 288 290 291 288 291 290 285 281 282 281 280 276 274 275 281 282 281 281 282 282 282 282 282 281 280 279 278 278 278 277 277 275 274 274 274 274 275 274 274 273 272 271 271 271 271 270 270 269 269 269 269
285 286 281 284 284 284 280 280 279 280 279 284 283 276 275 276 278 283 283 282 282 282 283 283 282 282 281 280 279 278 276 276 276 274 274 275 274 274 273 272 272 271 271 270 270 270 270 270 270 270 269 269 269 268
283 282 283 277 280 280 280 278 278 281 281 282 273 273 278 280 281 282 282 282 282 282 282 282 281 280 280 278 276 275 275 275 275 275 274 274 274 274 272 271 271 271 270 270 270 269 269 269 268 268 268 268 268 268
283 281 279 278 274 275 280 280 279 280 280 280 279 279 278 278 280 282 282 282 282 282 281 281 280 279 278 277 276 275 275 274 274 274 274 274 274 272 271 271 270 270 270 270 269 269 268 268 268 268 268 268 268 267
283 281 279 279 276 278 278 278 279 279 279 278 278 277 277 278 278 278 279 280 280 280 279 279 277 276 276 275 274 274 274 274 273 273 272 272 272 271 271 270 270 270 269 269 269 269 269 268 268 268 268 268 267 267
282 280 278 274 279 279 280 279 278 277 277 277 277 277 277 277 276 276 277 277 277 277 277 277 277 277 276 276 275 274 274 273 273 272 272 272 271 271 271 270 270 270 270 269 269 269 269 269 268 268 268 267 267 267
280 280 280 280 279 280 280 281 280 279 278 277 278 279 278 277 275 276 276 276 277 277 277 276 276 276 275 274 273 273 273 273 272 272 272 271 271 271 270 270 270 270 270 269 269 269 268 268 268 268 268 267 267 267
Wind_Speed
22 24 26 26 25 20 21 21 21 22 17 15 16 17 20 23 23 26 30 31 31 12 19 9 5 6 0 2 1 7 4 2 1 1 1 2 2 4 3 4 4 6 5 4 3 4 9 18 7 4 5 18 20 19
23 25 27 27 20 20 21 21 20 17 15 14 15 17 18 22 26 27 26 27 29 22 7 4 16 24 23 14 8 3 3 3 2 2 2 2 2 2 3 3 2 4 5 3 6 4 7 17 17 22 17 21 19 21
24 28 26 22 20 21 20 18 18 19 18 16 15 16 18 19 22 30 34 25 29 21 22 30 32 17 15 23 20 8 2 4 3 7 2 1 3 2 2 2 3 3 4 1 3 8 11 16 19 22 22 18 16 16
26 26 24 20 19 19 18 20 22 22 22 21 19 19 19 20 21 24 36 34 32 10 4 8 3 14 25 25 18 19 15 9 5 2 0 1 2 3 2 2 3 6 3 4 5 10 13 16 14 11 14 11 12 8
25 24 22 18 19 20 20 24 24 26 28 28 24 25 23 22 22 24 31 37 31 20 5 7 18 25 11 15 31 22 11 12 6 0 1 2 4 3 2 3 4 8 5 3 2 9 9 6 10 10 8 7 8 5
25 18 19 21 24 26 27 30 30 31 31 30 29 26 27 25 24 29 7 31 37 27 3 2 4 5 11 18 13 28 16 14 5 3 3 5 4 1 3 3 8 11 13 21 5 13 15 14 12 10 10 6 5 8
18 18 19 22 24 25 27 29 31 30 31 28 27 26 27 28 31 25 8 8 32 29 5 3 4 2 5 15 10 19 18 5 6 4 4 4 4 6 2 3 8 12 17 19 14 5 15 13 8 10 9 7 8 10
16 17 18 20 22 24 25 23 20 19 21 23 25 28 31 31 31 24 9 10 29 24 7 2 3 3 9 6 4 9 9 9 5 4 4 3 2 4 3 7 12 11 8 16 14 13 10 7 5 5 5 5 6 8
14 14 16 16 17 12 9 6 7 8 10 18 29 33 33 31 15 12 12 20 32 7 9 5 3 3 8 5 6 7 7 2 5 2 3 1 3 4 5 9 13 14 9 7 7 6 6 8 5 4 4 4 4 5
12 9 9 7 5 6 5 9 11 16 28 36 41 16 8 20 22 21 21 11 9 6 5 2 5 3 9 4 3 6 5 2 3 4 5 3 3 12 12 10 9 9 9 7 3 9 8 5 5 5 6 6 3 2
8 4 4 10 13 12 13 16 23 31 34 23 5 7 35 32 26 8 5 4 4 2 5 7 8 3 6 3 3 5 3 3 3 2 2 2 2 4 7 8 8 8 8 7 6 5 5 3 3 4 7 7 5 4
7 9 14 18 19 24 26 31 28 27 12 8 21 32 23 7 4 4 3 4 4 5 4 5 4 5 2 4 3 3 2 3 2 3 3 2 3 8 5 6 7 7 7 7 7 6 6 6 6 6 7 7 7 7
20 27 29 22 24 28 29 18 25 20 30 39 8 4 2 3 3 5 6 4 3 3 6 6 3 4 3 3 3 2 2 2 2 3 2 2 9 7 5 5 6 6 6 5 6 7 5 5 5 6 8 9 8 10
22 27 21 27 20 25 25 31 32 31 17 6 3 5 3 3 2 2 1 2 3 5 16 15 5 3 3 3 2 3 1 2 2 3 3 1 8 7 5 6 5 8 8 9 9 9 10 11 12 11 10 9 9 11
28 25 21 30 25 26 18 28 13 6 5 5 5 3 2 1 4 4 8 6 7 12 13 10 6 4 2 3 2 2 2 2 1 3 2 12 9 8 7 7 8 8 7 8 8 8 9 9 11 13 11 10 9 9
26 18 11 13 20 17 12 11 7 8 6 5 7 4 4 6 5 9 10 8 8 13 10 5 3 3 3 2 4 1 2 3 2 2 14 11 8 6 6 5 6 7 8 8 8 9 9 9 9 11 10 8 7 6
27 17 16 13 9 13 13 2 7 8 6 5 4 11 12 9 7 6 7 6 7 4 2 3 4 2 2 3 2 2 3 2 13 16 12 8 9 9 8 7 6 5 6 7 8 8 8 9 8 7 6 6 5 5
22 17 16 16 9 10 12 8 7 6 7 9 5 9 16 10 7 9 9 7 3 4 4 2 4 4 2 4 2 1 11 19 18 16 14 12 10 9 6 5 5 5 8 8 7 7 6 6 4 4 4 4 5 7
22 22 20 16 10 3 5 6 6 6 6 7 11 11 10 10 14 8 8 12 14 12 8 5 4 2 2 3 11 20 22 22 21 16 13 10 7 6 6 5 5 5 5 2 1 1 3 2 1 2 3 2 4 5
25 20 17 11 3 5 5 6 5 7 4 5 7 9 6 7 7 11 14 12 10 7 7 4 1 2 4 19 19 19 17 17 18 18 15 11 8 7 7 5 4 3 3 3 2 3 4 5 5 4 4 7 7 6
22 19 16 13 10 9 7 5 6 7 8 6 11 5 6 9 6 7 9 9 9 5 4 7 19 21 19 19 17 17 15 14 13 10 16 13 8 5 5 4 2 7 5 4 3 4 5 6 6 7 7 8 8 8
17 13 8 6 6 6 7 7 9 9 5 7 9 4 5 3 3 4 4 10 5 5 8 23 24 22 19 18 16 13 10 11 12 12 10 11 9 7 5 4 4 5 4 4 5 5 7 7 8 5 3 3 2 1
13 7 6 6 6 5 5 5 4 4 4 6 6 3 3 2 4 4 5 4 5 15 18 19 17 15 17 15 13 11 10 12 13 11 10 9 6 4 3 3 4 5 5 4 4 6 6 5 6 4 2 1 3 2
6 5 5 4 5 2 4 2 4 5 5 3 2 3 1 4 8 4 3 3 12 17 16 16 18 21 19 16 15 12 10 8 11 10 6 4 3 2 0 1 3 6 6 5 4 5 5 2 4 4 4 3 3 4
3 6 4 4 4 4 3 3 2 3 2 2 3 1 2 5 2 2 3 8 19 18 18 23 22 20 20 17 14 11 9 6 6 8 9 6 4 3 3 2 2 2 3 6 6 4 4 4 4 3 4 4 4 6
6 7 3 2 1 4 4 3 3 4 3 2 1 4 4 3 3 2 4 21 23 25 25 22 20 18 14 10 15 12 10 9 4 4 6 7 6 6 7 8 7 6 6 6 7 7 5 4 4 6 6 6 4 5
4 2 4 5 1 4 4 6 6 4 3 4 3 2 3 4 2 1 14 20 25 23 19 16 17 16 13 13 12 10 11 7 5 3 3 4 5 7 8 8 8 9 8 8 7 8 8 7 6 5 6 7 6 6
4 4 4 6 8 9 3 3 3 2 1 3 5 3 5 6 4 7 11 23 25 22 18 16 15 10 9 10 8 8 10 9 7 6 5 3 2 3 2 2 5 7 8 7 6 8 9 10 9 8 8 8 8 9
4 4 5 5 6 7 7 3 1 3 4 2 4 2 2 3 5 19 25 25 23 22 19 19 18 14 12 13 12 11 9 7 4 5 4 2 2 4 6 5 4 3 4 5 3 2 2 4 8 10 9 8 8 8
3 3 6 5 4 3 5 5 4 6 6 10 9 19 21 20 20 22 21 19 18 17 15 14 12 11 11 10 10 8 6 5 4 5 6 5 5 5 5 5 4 5 5 6 6 5 4 5 5 6 7 7 7 8
5 5 6 5 4 10 16 16 16 14 13 17 25 26 19 18 18 12 11 10 12 14 16 16 15 12 10 8 7 5 5 3 3 3 3 3 3 3 4 5 6 6 5 5 6 6 6 6 6 6 8 9 10 11
4 4 7 4 4 15 6 5 9 16 10 10 8 17 14 6 4 5 12 9 9 14 14 12 11 11 9 7 6 3 1 1 0 0 1 1 2 3 2 3 3 3 3 3 4 4 4 4 4 4 5 7 8 9
14 13 13 8 5 6 7 5 4 5 5 5 8 6 2 4 4 5 13 13 10 9 10 9 9 8 6 5 4 3 2 1 0 1 2 2 2 1 2 2 2 2 3 4 5 5 5 5 6 7 8 9 9 10
Wind_Direction
264 271 277 276 279 266 270 273 270 273 256 251 249 244 233 230 220 218 222 229 213 230 248 247 254 241 172 62 292 331 357 12 51 154 190 225 195 253 291 248 207 181 179 195 180 220 248 347 327 24 75 86 89 81
265 272 275 279 263 265 273 270 271 250 251 255 252 245 237 227 224 221 216 229 222 219 243 247 255 250 244 242 274 307 322 295 225 190 227 314 314 338 216 268 43 223 186 207 180 186 72 55 73 65 69 82 73 86
267 273 275 271 262 271 275 266 256 242 250 260 263 250 237 231 224 218 216 221 203 215 255 257 254 245 240 240 246 222 266 324 25 7 343 296 277 319 274 248 316 233 329 326 154 121 91 67 57 61 62 58 80 70
269 274 273 266 273 272 275 267 248 245 252 259 259 245 240 233 219 219 213 218 210 178 224 269 273 239 238 234 219 226 247 261 289 3 22 282 246 203 264 13 341 342 3 326 99 90 79 53 55 46 59 52 66 78
270 270 267 268 276 272 270 262 262 258 254 257 254 245 238 231 217 218 218 221 225 190 202 247 262 258 255 215 220 226 239 255 218 277 223 245 272 311 283 113 14 357 349 350 48 318 95 73 48 47 51 40 45 53
277 261 269 266 268 268 268 265 261 263 259 253 252 239 226 217 204 199 154 212 220 191 201 313 303 265 224 213 215 207 222 216 197 172 251 261 257 181 276 81 30 36 33 34 346 77 92 87 71 67 79 67 54 41
254 260 266 273 275 274 272 271 267 263 259 246 236 219 206 197 199 186 172 184 201 192 163 301 290 307 212 190 202 200 207 216 209 201 227 244 269 179 19 58 32 37 40 34 48 91 55 58 68 74 86 54 27 24
256 266 277 279 279 278 276 269 265 257 245 228 214 202 190 184 189 179 155 162 178 176 164 206 262 340 165 119 122 177 188 203 216 207 236 236 41 48 78 61 47 35 48 46 38 54 68 74 54 46 40 358 8 28
258 273 286 287 282 267 251 232 240 241 221 196 183 172 164 167 161 156 178 165 172 149 168 178 161 212 177 145 125 162 164 171 201 216 222 97 36 51 59 68 50 44 43 21 49 49 26 41 46 32 33 44 49 52
269 273 304 283 215 164 154 148 140 129 129 135 138 132 112 139 158 146 142 158 206 168 187 189 182 159 181 132 127 140 180 200 202 213 120 72 81 77 74 67 47 33 25 16 64 34 29 58 107 69 49 40 43 27
239 297 279 162 145 135 127 131 139 143 146 127 76 71 130 146 142 163 132 148 145 170 206 192 177 147 203 152 148 198 170 163 206 179 166 101 103 97 81 58 35 18 18 28 28 40 62 91 87 57 56 57 69 102
146 141 143 137 131 136 138 144 141 138 130 129 131 131 130 150 134 106 131 142 173 197 146 136 139 128 132 128 135 152 176 167 220 104 83 90 93 99 79 48 32 24 20 22 26 41 61 67 66 71 76 74 80 91
143 122 125 122 139 139 143 138 158 147 127 123 105 98 90 20 92 117 169 152 145 137 153 140 107 123 120 82 76 106 111 184 89 50 74 73 120 102 86 47 42 36 26 39 52 52 67 89 96 89 93 97 103 105
150 141 121 104 95 140 135 126 123 125 125 66 68 42 75 358 48 200 87 101 132 140 135 123 98 91 90 64 29 90 261 43 93 71 196 114 129 115 89 74 61 60 54 64 69 72 77 82 88 93 96 104 115 112
151 144 124 109 100 131 105 137 130 152 90 77 51 69 53 300 45 69 101 95 102 114 113 96 66 78 32 71 24 96 107 58 86 187 124 138 135 123 102 84 71 62 65 73 77 83 88 94 99 101 102 104 103 104
157 148 155 129 92 94 104 102 96 77 67 61 47 65 59 65 17 59 72 66 94 116 89 72 102 67 32 77 58 35 71 195 211 140 136 139 129 118 110 99 80 73 75 83 86 89 94 98 101 102 106 104 98 91
168 149 154 156 118 107 133 92 58 59 61 49 35 61 84 74 52 57 55 45 103 86 101 87 69 182 97 64 59 22 153 167 117 132 137 140 137 133 128 122 114 101 91 87 92 95 95 93 92 94 90 82 67 55
180 171 157 162 148 114 89 59 81 74 66 59 75 62 76 76 66 51 43 59 102 90 66 89 87 60 94 127 181 140 111 129 134 137 138 137 136 136 143 137 129 114 109 103 96 90 81 70 59 52 46 42 32 25
159 159 157 164 171 111 78 56 61 89 77 85 101 86 75 72 66 74 84 87 96 102 97 61 67 70 131 113 134 138 143 145 140 137 134 137 141 138 143 133 132 142 153 147 158 112 137 164 244 297 296 281 292 322
137 138 151 156 115 82 83 71 69 88 99 98 90 79 73 80 76 68 79 79 75 55 52 45 59 64 111 142 146 146 148 150 146 137 137 131 125 153 145 104 97 117 170 181 175 187 221 236 251 263 259 249 266 284
130 131 130 117 73 71 82 88 73 97 113 97 120 80 84 82 58 43 39 37 60 41 71 106 111 118 124 133 135 135 137 141 143 141 147 141 132 143 164 184 90 210 206 213 242 197 228 280 287 293 295 287 280 272
137 142 123 80 82 74 71 51 104 109 84 142 164 119 113 76 66 48 62 49 59 47 130 132 129 131 127 122 129 139 134 165 163 147 151 157 161 168 174 187 215 228 229 251 286 289 289 289 289 289 333 345 304 201
127 117 69 57 83 70 117 144 87 106 111 174 147 90 57 83 111 85 77 68 91 134 142 134 136 141 134 128 131 126 139 150 148 153 161 167 176 189 209 230 249 251 241 249 292 316 312 287 240 256 223 59 84 162
102 68 57 62 71 110 131 102 96 98 103 133 88 95 127 135 144 73 86 88 147 153 154 150 151 140 136 137 134 131 135 151 146 142 148 152 171 194 197 254 253 254 268 287 312 338 357 264 216 241 241 223 217 229
94 19 55 25 101 87 72 33 58 74 118 133 93 101 214 161 90 85 148 150 167 166 162 155 152 151 148 149 151 158 159 152 169 174 165 202 220 193 196 223 273 290 267 279 280 288 321 318 279 253 236 246 265 279
72 19 58 166 176 109 167 118 153 151 109 79 180 134 156 87 73 190 180 172 172 165 162 161 162 168 170 181 176 178 173 186 191 189 199 216 237 250 255 259 269 271 286 294 280 278 269 287 296 282 277 248 249 296
79 314 58 36 99 91 79 80 99 95 107 150 183 134 85 87 200 218 145 170 167 167 169 183 191 183 179 169 170 181 198 199 203 226 206 208 230 241 248 259 266 272 278 288 296 269 266 269 277 279 271 266 275 290
74 41 95 11 62 42 84 46 53 57 39 34 102 58 124 165 190 143 160 169 170 169 167 163 177 189 178 176 188 191 186 194 201 199 194 188 147 140 6 286 271 270 273 281 269 254 261 267 278 286 286 287 297 304
63 79 89 44 56 47 38 41 52 39 3 34 106 119 118 71 139 145 156 169 176 179 175 168 164 176 178 175 172 174 181 187 198 205 218 260 301 337 349 360 333 294 263 267 271 272 265 266 261 263 272 272 277 284
91 68 91 63 66 29 9 30 74 61 90 106 102 112 98 101 131 149 156 165 173 178 180 181 182 181 177 176 174 174 182 193 214 247 274 276 285 307 326 331 327 329 333 320 310 311 306 287 276 264 260 267 284 306
104 92 81 70 83 104 102 102 101 104 99 108 125 115 111 114 118 124 145 166 183 184 180 176 172 171 174 167 167 169 176 196 210 240 271 290 304 319 320 311 317 321 312 308 309 311 306 303 302 290 294 299 304 307
64 98 125 106 141 154 132 70 77 96 85 94 95 120 120 93 84 126 147 156 167 168 171 171 172 166 157 155 158 168 214 246 188 55 342 311 314 328 335 333 327 325 329 340 349 339 333 335 328 321 316 317 319 319
102 101 108 98 123 177 183 153 113 116 95 118 152 156 87 110 125 151 168 178 185 181 175 172 168 173 172 170 176 188 197 221 287 320 323 324 337 4 37 60 53 28 16 11 10 2 359 350 340 337 335 332 328 326